TimeCST,TemperatureF,Dew PointF,Humidity,Sea Level PressureIn,VisibilityMPH,Wind Direction,Wind SpeedMPH,Gust SpeedMPH,PrecipitationIn,Events,Conditions,WindDirDegrees,DateUTC
12:15 AM,42.8,37.4,81,29.36,3.0,South,6.9,-,N/A,,Overcast,170,2013-01-12 06:15:00
12:35 AM,41.0,37.4,87,29.34,3.0,SSE,9.2,-,N/A,,Overcast,150,2013-01-12 06:35:00
12:55 AM,42.8,37.4,81,29.33,4.0,SSE,6.9,-,N/A,,Overcast,160,2013-01-12 06:55:00
1:15 AM,42.8,37.4,81,29.33,5.0,South,5.8,-,N/A,,Overcast,170,2013-01-12 07:15:00
1:35 AM,42.8,39.2,87,29.32,7.0,South,12.7,19.6,N/A,,Overcast,170,2013-01-12 07:35:00
1:55 AM,44.6,39.2,81,29.32,7.0,South,10.4,18.4,N/A,,Overcast,180,2013-01-12 07:55:00
2:15 AM,44.6,39.2,81,29.32,9.0,South,10.4,21.9,N/A,,Overcast,180,2013-01-12 08:15:00
2:35 AM,44.6,39.2,81,29.31,10.0,South,10.4,17.3,N/A,,Overcast,190,2013-01-12 08:35:00
2:55 AM,44.6,39.2,81,29.31,10.0,SSW,13.8,21.9,N/A,,Overcast,200,2013-01-12 08:55:00
3:15 AM,44.6,39.2,81,29.30,7.0,South,15.0,20.7,N/A,,Overcast,190,2013-01-12 09:15:00
3:35 AM,44.6,39.2,81,29.28,10.0,South,11.5,23.0,N/A,,Overcast,190,2013-01-12 09:35:00
3:55 AM,44.6,39.2,81,29.29,10.0,SSW,16.1,23.0,0.01,,Overcast,210,2013-01-12 09:55:00
4:15 AM,44.6,39.2,81,29.29,8.0,SSW,12.7,23.0,N/A,,Overcast,210,2013-01-12 10:15:00
4:35 AM,44.6,37.4,76,29.29,10.0,SW,20.7,27.6,N/A,,Overcast,220,2013-01-12 10:35:00
4:55 AM,42.8,35.6,76,29.30,10.0,SSW,18.4,28.8,N/A,,Overcast,210,2013-01-12 10:55:00
5:15 AM,42.8,35.6,76,29.30,10.0,SW,18.4,25.3,N/A,,Mostly Cloudy,220,2013-01-12 11:15:00
5:35 AM,41.0,32.0,70,29.31,10.0,SW,23.0,29.9,N/A,,Mostly Cloudy,220,2013-01-12 11:35:00
5:55 AM,39.2,32.0,75,29.33,10.0,SW,24.2,35.7,N/A,,Overcast,230,2013-01-12 11:55:00
6:15 AM,39.2,30.2,70,29.34,10.0,SW,19.6,29.9,N/A,,Mostly Cloudy,230,2013-01-12 12:15:00
6:35 AM,39.2,30.2,70,29.36,10.0,SW,18.4,31.1,N/A,,Overcast,230,2013-01-12 12:35:00
6:55 AM,37.4,30.2,75,29.37,10.0,SW,23.0,29.9,N/A,,Overcast,230,2013-01-12 12:55:00
7:15 AM,37.4,30.2,75,29.39,10.0,SW,25.3,29.9,N/A,,Overcast,220,2013-01-12 13:15:00
7:35 AM,35.6,28.4,75,29.40,10.0,SW,23.0,35.7,N/A,,Overcast,220,2013-01-12 13:35:00
7:55 AM,35.6,26.6,70,29.42,10.0,SW,19.6,29.9,N/A,,Overcast,220,2013-01-12 13:55:00
8:15 AM,33.8,26.6,75,29.44,10.0,SW,23.0,31.1,N/A,,Overcast,230,2013-01-12 14:15:00
8:35 AM,33.8,24.8,70,29.46,10.0,SW,20.7,28.8,N/A,,Overcast,220,2013-01-12 14:35:00
8:55 AM,32.0,24.8,75,29.47,10.0,SW,28.8,33.4,N/A,,Overcast,220,2013-01-12 14:55:00
9:15 AM,-9999,-9999,N/A,29.49,10.0,SW,28.8,38.0,N/A,,Overcast,230,2013-01-12 15:15:00
9:35 AM,28.4,19.4,69,29.52,10.0,SW,20.7,32.2,N/A,,Overcast,230,2013-01-12 15:35:00
9:55 AM,28.4,19.4,69,29.54,10.0,SW,21.9,34.5,N/A,,Overcast,220,2013-01-12 15:55:00
10:15 AM,26.6,17.6,69,29.55,10.0,WSW,25.3,29.9,N/A,,Overcast,240,2013-01-12 16:15:00
10:35 AM,26.6,17.6,69,29.58,10.0,SW,24.2,29.9,N/A,,Overcast,230,2013-01-12 16:35:00
10:55 AM,26.6,15.8,64,29.59,10.0,SW,24.2,27.6,N/A,,Overcast,230,2013-01-12 16:55:00
11:15 AM,24.8,15.8,69,29.61,10.0,WSW,18.4,27.6,N/A,,Overcast,240,2013-01-12 17:15:00
11:55 AM,24.8,15.8,69,29.64,10.0,WSW,19.6,25.3,N/A,,Overcast,240,2013-01-12 17:55:00
12:15 PM,24.8,12.2,59,29.64,10.0,WSW,19.6,28.8,N/A,,Overcast,240,2013-01-12 18:15:00
12:35 PM,23.0,12.2,63,29.65,10.0,SW,16.1,-,N/A,,Overcast,230,2013-01-12 18:35:00
12:55 PM,23.0,12.2,63,29.66,10.0,SW,17.3,20.7,N/A,,Overcast,230,2013-01-12 18:55:00
1:35 PM,23.0,12.2,63,29.68,10.0,WSW,17.3,23.0,N/A,,Overcast,250,2013-01-12 19:35:00
1:55 PM,23.0,12.2,63,29.70,10.0,WSW,19.6,24.2,N/A,,Overcast,240,2013-01-12 19:55:00
2:15 PM,21.2,10.4,63,29.73,10.0,WSW,16.1,23.0,N/A,,Overcast,250,2013-01-12 20:15:00
2:55 PM,21.2,10.4,63,29.75,10.0,WSW,21.9,-,N/A,,Overcast,250,2013-01-12 20:55:00
3:15 PM,19.4,10.4,68,29.75,10.0,WSW,17.3,-,N/A,,Overcast,250,2013-01-12 21:15:00
3:35 PM,19.4,8.6,63,29.78,10.0,WSW,20.7,25.3,N/A,,Overcast,250,2013-01-12 21:35:00
5:15 PM,17.6,6.8,63,29.82,10.0,WSW,13.8,19.6,N/A,,Overcast,250,2013-01-12 23:15:00
5:35 PM,17.6,6.8,63,29.85,10.0,WSW,11.5,17.3,N/A,,Overcast,240,2013-01-12 23:35:00
5:55 PM,17.6,5.0,58,29.86,10.0,WSW,15.0,24.2,N/A,,Overcast,240,2013-01-12 23:55:00
6:15 PM,15.8,6.8,68,29.86,10.0,WSW,15.0,21.9,N/A,,Overcast,250,2013-01-13 00:15:00
6:35 PM,15.8,6.8,68,29.86,10.0,WSW,13.8,18.4,N/A,,Overcast,240,2013-01-13 00:35:00
7:15 PM,15.8,5.0,62,29.86,10.0,West,15.0,18.4,N/A,,Overcast,260,2013-01-13 01:15:00
7:35 PM,15.8,3.2,58,29.87,10.0,WSW,12.7,-,N/A,,Overcast,250,2013-01-13 01:35:00
7:55 PM,15.8,3.2,58,29.88,10.0,WSW,10.4,-,N/A,,Overcast,250,2013-01-13 01:55:00
8:15 PM,15.8,3.2,58,29.89,10.0,WSW,11.5,-,N/A,,Overcast,250,2013-01-13 02:15:00
8:35 PM,15.8,3.2,58,29.89,10.0,West,12.7,-,N/A,,Overcast,260,2013-01-13 02:35:00
8:55 PM,15.8,5.0,62,29.90,10.0,West,13.8,-,N/A,,Overcast,260,2013-01-13 02:55:00
9:15 PM,14.0,3.2,62,29.86,10.0,West,11.5,16.1,N/A,,Overcast,270,2013-01-13 03:15:00
9:35 PM,14.0,5.0,67,29.89,10.0,WSW,12.7,-,N/A,,Overcast,250,2013-01-13 03:35:00
9:55 PM,14.0,5.0,67,29.90,10.0,WSW,9.2,-,N/A,,Overcast,250,2013-01-13 03:55:00
10:15 PM,14.0,3.2,62,29.92,10.0,WSW,9.2,-,N/A,,Overcast,240,2013-01-13 04:15:00
10:35 PM,14.0,3.2,62,29.91,10.0,WSW,10.4,-,N/A,,Overcast,250,2013-01-13 04:35:00
10:55 PM,14.0,3.2,62,29.93,10.0,West,12.7,-,N/A,,Overcast,260,2013-01-13 04:55:00
11:15 PM,14.0,3.2,62,29.91,10.0,West,11.5,-,N/A,,Overcast,260,2013-01-13 05:15:00
11:35 PM,14.0,3.2,62,29.92,10.0,West,9.2,-,N/A,,Overcast,260,2013-01-13 05:35:00
11:55 PM,14.0,3.2,62,29.92,10.0,WSW,10.4,-,N/A,,Overcast,250,2013-01-13 05:55:00